Location: Laguna de la Cañada del Gallo
(40.3974°N, 5.2096°W)
Time: 06:40:26
(UTC+00:00)

Cosmos 2263 Rocket - Visible Passes

Search period start: 13 July 2024 00:00
Search period end: 23 July 2024 00:00
Orbit: 824 x 846 km, 71.0° (Epoch: 12 July)

Date Brightness Start Highest point End Pass type
(mag) Time Alt. Az. Time Alt. Az. Time Alt. Az.
13 Jul 5.6 03:37:10 10° NNE 03:39:57 14° NE 03:42:43 10° ENE visible
14 Jul 5.6 03:20:28 10° NNE 03:22:52 13° NE 03:25:15 10° ENE visible
15 Jul 5.6 03:03:51 10° NNE 03:05:46 12° NE 03:07:41 10° ENE visible
16 Jul 5.6 02:47:26 10° NNE 02:48:40 11° NE 02:49:56 10° ENE visible
16 Jul 2.8 04:28:08 10° NNW 04:33:44 64° ENE 04:39:19 10° SE visible
17 Jul 2.9 04:11:10 10° NNW 04:16:44 58° ENE 04:22:16 10° SE visible
17 Jul 5.8 20:49:50 10° WNW 20:51:07 11° NW 20:52:25 10° NNW visible
18 Jul 3.1 03:54:13 10° NNW 03:59:43 53° ENE 04:05:12 10° SE visible
18 Jul 5.7 20:32:06 10° WNW 20:34:02 12° NW 20:35:58 10° NNW visible
19 Jul 3.2 03:37:15 10° NNW 03:42:42 49° ENE 03:48:08 10° SE visible
19 Jul 5.5 20:14:32 10° WNW 20:16:56 13° NW 20:19:21 10° NNW visible
20 Jul 3.4 03:20:17 10° NNW 03:25:40 45° ENE 03:31:03 10° SE visible
21 Jul 3.5 03:03:20 10° N 03:08:39 41° ENE 03:13:57 10° SE visible
22 Jul 3.6 02:46:23 10° N 02:51:37 38° ENE 02:56:50 10° SE visible
22 Jul 3.0 04:30:32 10° NW 04:35:21 30° WSW 04:40:10 10° SSW visible
